When you browse on this site, cookies collect data to enhance your experience and personalize the content and advertising you see.
Visit our Privacy Policy to learn more. By continuing to use the site, you agree to this use of cookies and data.
  • In Austria
  • List of Countries
  • For 7 days
  • Water Temperature
  • Satellite Maps
  • Weather Map
  • News
  • Weather Widgets
  • user-avatar
    Login

    Hourly Weather Copiague

    Today, 25 June, Tuesday

    Time Temperature Precipitation Wind Pressure Humidity
    00:00 +23°C° 0 mm 4 mps 757 mmHg 76%
    01:00 +23°C° 0 mm 4 mps 757 mmHg 78%
    02:00 +23°C° 0.1 mm 4 mps 757 mmHg 81%
    03:00 +23°C° 0.1 mm 4 mps 757 mmHg 83%
    04:00 +23°C° 0.1 mm 5 mps 757 mmHg 86%
    05:00 +22°C° 0.5 mm 5 mps 757 mmHg 88%
    06:00 +22°C° 0.5 mm 5 mps 757 mmHg 90%
    07:00 +22°C° 0.5 mm 5 mps 757 mmHg 92%
    08:00 +22°C° 0.8 mm 4 mps 757 mmHg 91%
    09:00 +23°C° 0.8 mm 4 mps 757 mmHg 90%
    10:00 +23°C° 0.8 mm 4 mps 757 mmHg 89%
    11:00 +26°C° 0.5 mm 3 mps 757 mmHg 81%
    12:00 +27°C° 0.5 mm 3 mps 757 mmHg 74%
    13:00 +29°C° 0.5 mm 2 mps 757 mmHg 67%
    14:00 +29°C° 0 mm 2 mps 756 mmHg 65%
    15:00 +29°C° 0 mm 3 mps 756 mmHg 63%
    16:00 +30°C° 0 mm 3 mps 756 mmHg 62%
    17:00 +29°C° 0 mm 3 mps 756 mmHg 63%
    18:00 +29°C° 0 mm 2 mps 757 mmHg 64%
    19:00 +28°C° 0 mm 2 mps 757 mmHg 65%
    20:00 +28°C° 0 mm 3 mps 757 mmHg 64%
    21:00 +28°C° 0 mm 3 mps 758 mmHg 63%
    22:00 +28°C° 0 mm 3 mps 758 mmHg 62%
    23:00 +27°C° 0 mm 4 mps 758 mmHg 65%

    Tomorrow, 26 June, Wednesday

    Time Temperature Precipitation Wind Pressure Humidity
    00:00 +26°C° 0 mm 4 mps 759 mmHg 67%
    01:00 +26°C° 0 mm 4 mps 759 mmHg 70%
    02:00 +25°C° 0 mm 4 mps 759 mmHg 70%
    03:00 +25°C° 0 mm 3 mps 760 mmHg 70%
    04:00 +24°C° 0 mm 3 mps 760 mmHg 70%
    05:00 +25°C° 0 mm 3 mps 760 mmHg 67%
    06:00 +25°C° 0 mm 2 mps 761 mmHg 65%
    07:00 +25°C° 0 mm 2 mps 762 mmHg 62%
    08:00 +27°C° 0 mm 2 mps 762 mmHg 56%
    09:00 +28°C° 0 mm 2 mps 762 mmHg 50%
    10:00 +29°C° 0 mm 2 mps 762 mmHg 44%
    11:00 +31°C° 0 mm 2 mps 762 mmHg 39%
    12:00 +32°C° 0 mm 2 mps 762 mmHg 35%
    13:00 +34°C° 0 mm 2 mps 762 mmHg 31%
    14:00 +34°C° 0 mm 3 mps 761 mmHg 33%
    15:00 +33°C° 0 mm 4 mps 761 mmHg 35%
    16:00 +33°C° 0 mm 4 mps 761 mmHg 37%
    17:00 +30°C° 0 mm 4 mps 761 mmHg 42%
    18:00 +29°C° 0 mm 5 mps 761 mmHg 48%
    19:00 +28°C° 0 mm 5 mps 761 mmHg 54%
    20:00 +28°C° 0.1 mm 4 mps 762 mmHg 56%
    21:00 +27°C° 0.1 mm 3 mps 762 mmHg 57%
    22:00 +27°C° 0.1 mm 3 mps 762 mmHg 58%
    23:00 +27°C° 0 mm 3 mps 762 mmHg 60%

    Day after tomorrow, 27 June, Thursday

    Time Temperature Precipitation Wind Pressure Humidity
    00:00 +27°C° 0 mm 2 mps 762 mmHg 61%
    01:00 +27°C° 0 mm 2 mps 762 mmHg 63%
    02:00 +26°C° 0 mm 3 mps 762 mmHg 65%
    03:00 +26°C° 0 mm 3 mps 762 mmHg 67%
    04:00 +26°C° 0 mm 3 mps 762 mmHg 69%
    05:00 +26°C° 0 mm 3 mps 763 mmHg 65%
    06:00 +27°C° 0 mm 3 mps 763 mmHg 62%
    07:00 +27°C° 0 mm 3 mps 763 mmHg 59%
    08:00 +28°C° 0 mm 2 mps 763 mmHg 53%
    09:00 +30°C° 0 mm 2 mps 763 mmHg 48%
    10:00 +31°C° 0 mm 2 mps 763 mmHg 43%
    11:00 +32°C° 0 mm 2 mps 763 mmHg 38%
    12:00 +34°C° 0 mm 2 mps 763 mmHg 34%
    13:00 +35°C° 0 mm 2 mps 764 mmHg 29%
    14:00 +35°C° 0 mm 3 mps 763 mmHg 28%
    15:00 +35°C° 0 mm 3 mps 763 mmHg 27%
    16:00 +36°C° 0 mm 3 mps 763 mmHg 26%
    17:00 +34°C° 0 mm 3 mps 763 mmHg 31%
    18:00 +33°C° 0 mm 3 mps 763 mmHg 35%
    19:00 +31°C° 0 mm 3 mps 764 mmHg 40%
    20:00 +30°C° 0 mm 3 mps 764 mmHg 42%
    21:00 +29°C° 0 mm 3 mps 764 mmHg 45%
    22:00 +29°C° 0 mm 2 mps 764 mmHg 48%
    23:00 +28°C° 0 mm 3 mps 764 mmHg 49%

    28 June, Friday

    Time Temperature Precipitation Wind Pressure Humidity
    00:00 +28°C° 0 mm 3 mps 764 mmHg 51%
    01:00 +27°C° 0 mm 3 mps 765 mmHg 53%
    02:00 +27°C° 0 mm 3 mps 765 mmHg 54%
    03:00 +26°C° 0 mm 3 mps 765 mmHg 55%
    04:00 +26°C° 0 mm 3 mps 765 mmHg 56%
    05:00 +26°C° 0 mm 2 mps 765 mmHg 54%
    06:00 +27°C° 0 mm 2 mps 765 mmHg 52%
    07:00 +27°C° 0 mm 2 mps 765 mmHg 50%
    08:00 +29°C° 0 mm 2 mps 766 mmHg 44%
    09:00 +30°C° 0 mm 2 mps 766 mmHg 38%
    10:00 +31°C° 0 mm 1 mps 766 mmHg 33%
    11:00 +34°C° 0 mm 2 mps 766 mmHg 30%
    12:00 +35°C° 0 mm 2 mps 765 mmHg 27%
    13:00 +36°C° 0 mm 2 mps 765 mmHg 24%
    14:00 +36°C° 0 mm 3 mps 765 mmHg 26%
    15:00 +35°C° 0 mm 3 mps 764 mmHg 27%
    16:00 +34°C° 0 mm 4 mps 764 mmHg 29%
    17:00 +33°C° 0 mm 4 mps 764 mmHg 35%
    18:00 +30°C° 0 mm 4 mps 764 mmHg 41%
    19:00 +29°C° 0 mm 4 mps 763 mmHg 48%
    20:00 +28°C° 0 mm 4 mps 763 mmHg 52%
    21:00 +27°C° 0 mm 4 mps 763 mmHg 56%
    22:00 +27°C° 0 mm 4 mps 764 mmHg 59%
    23:00 +26°C° 0.3 mm 4 mps 763 mmHg 63%

    29 June, Saturday

    Time Temperature Precipitation Wind Pressure Humidity
    00:00 +26°C° 0.3 mm 3 mps 763 mmHg 67%
    01:00 +26°C° 0.3 mm 3 mps 763 mmHg 71%
    02:00 +26°C° 0.1 mm 3 mps 762 mmHg 71%
    03:00 +26°C° 0.1 mm 3 mps 762 mmHg 71%
    04:00 +26°C° 0.1 mm 3 mps 762 mmHg 71%
    05:00 +26°C° 0.1 mm 3 mps 761 mmHg 70%
    06:00 +26°C° 0.1 mm 4 mps 761 mmHg 69%
    07:00 +27°C° 0.1 mm 4 mps 761 mmHg 68%
    08:00 +28°C° 0.1 mm 4 mps 761 mmHg 63%
    09:00 +30°C° 0.1 mm 4 mps 760 mmHg 57%
    10:00 +32°C° 0.1 mm 4 mps 760 mmHg 51%
    11:00 +32°C° 0.1 mm 4 mps 760 mmHg 50%
    12:00 +32°C° 0.1 mm 4 mps 759 mmHg 49%
    13:00 +32°C° 0.1 mm 5 mps 759 mmHg 47%
    14:00 +32°C° 0 mm 5 mps 758 mmHg 48%
    15:00 +32°C° 0 mm 5 mps 758 mmHg 48%
    16:00 +33°C° 0 mm 5 mps 757 mmHg 48%
    17:00 +32°C° 0.1 mm 5 mps 757 mmHg 47%
    18:00 +32°C° 0.1 mm 4 mps 757 mmHg 46%
    19:00 +32°C° 0.1 mm 4 mps 757 mmHg 45%
    20:00 +30°C° 0 mm 5 mps 757 mmHg 45%
    21:00 +30°C° 0 mm 5 mps 758 mmHg 44%
    22:00 +29°C° 0 mm 6 mps 758 mmHg 44%
    23:00 +28°C° 0 mm 6 mps 758 mmHg 45%

    30 June, Sunday

    Time Temperature Precipitation Wind Pressure Humidity
    00:00 +27°C° 0 mm 6 mps 757 mmHg 46%
    01:00 +26°C° 0 mm 6 mps 757 mmHg 48%
    02:00 +26°C° 0 mm 6 mps 757 mmHg 48%
    03:00 +26°C° 0 mm 5 mps 757 mmHg 49%
    04:00 +25°C° 0 mm 5 mps 757 mmHg 49%
    05:00 +26°C° 0 mm 5 mps 757 mmHg 47%
    06:00 +26°C° 0 mm 5 mps 756 mmHg 45%
    07:00 +26°C° 0 mm 5 mps 756 mmHg 44%
    08:00 +28°C° 0 mm 5 mps 756 mmHg 40%
    09:00 +29°C° 0 mm 5 mps 755 mmHg 37%
    10:00 +32°C° 0 mm 5 mps 755 mmHg 33%
    11:00 +32°C° 0 mm 6 mps 755 mmHg 32%
    12:00 +33°C° 0 mm 6 mps 754 mmHg 31%
    13:00 +34°C° 0 mm 6 mps 754 mmHg 30%
    14:00 +33°C° 0 mm 7 mps 754 mmHg 30%
    15:00 +32°C° 0 mm 8 mps 754 mmHg 30%
    16:00 +31°C° 0 mm 9 mps 754 mmHg 30%
    17:00 +28°C° 0 mm 9 mps 754 mmHg 33%
    18:00 +27°C° 0 mm 8 mps 755 mmHg 37%
    19:00 +24°C° 0 mm 8 mps 755 mmHg 40%
    20:00 +23°C° 0 mm 8 mps 756 mmHg 42%
    21:00 +22°C° 0 mm 8 mps 756 mmHg 44%
    22:00 +21°C° 0 mm 7 mps 757 mmHg 45%
    23:00 +21°C° 0 mm 7 mps 757 mmHg 48%
    Show more